Location: Nashville
(36.1660°N, 86.7840°W)
Time: 00:00:22
(UTC-05:00)

A-11 Canister half - Visible Passes

Search period start: 10 August 2022 00:00
Search period end: 20 August 2022 00:00
Orbit: 1525 x 1683 km, 47.3° (Epoch: 09 August)

Date Brightness Start Highest point End Pass type
(mag) Time Alt. Az. Time Alt. Az. Time Alt. Az.
10 Aug 10.7 03:47:06 10° S 03:54:06 22° SE 04:01:08 10° E visible
11 Aug 10.7 03:26:38 12° SSE 03:32:28 20° SE 03:39:09 10° E visible
11 Aug 9.4 05:26:21 10° SW 05:36:21 72° SE 05:46:27 10° ENE visible
12 Aug 10.7 03:06:27 14° SSE 03:10:50 19° ESE 03:17:08 10° E visible
12 Aug 9.4 05:04:46 10° SW 05:14:39 69° SE 05:24:43 10° ENE visible
13 Aug 10.7 02:46:14 15° SE 02:49:13 17° ESE 02:55:03 10° E visible
13 Aug 9.4 04:44:33 16° SW 04:52:57 66° SE 05:02:59 10° ENE visible
14 Aug 10.7 02:25:58 15° SE 02:27:36 16° ESE 02:32:55 10° E visible
14 Aug 9.4 04:24:16 22° SSW 04:31:15 63° SE 04:41:14 10° ENE visible
15 Aug 10.8 02:05:39 14° ESE 02:05:59 14° ESE 02:10:42 10° E visible
15 Aug 9.4 04:03:57 29° SSW 04:09:34 60° SE 04:19:29 10° ENE visible
16 Aug 10.9 01:45:17 13° ESE 01:45:17 13° ESE 01:48:20 10° E visible
16 Aug 9.4 03:43:35 35° SSW 03:47:53 57° SE 03:57:44 10° ENE visible
17 Aug 11.0 01:24:52 11° ESE 01:24:52 11° ESE 01:25:46 10° ESE visible
17 Aug 9.4 03:23:11 42° S 03:26:12 54° SE 03:35:58 10° ENE visible
17 Aug 9.4 05:21:28 10° WSW 05:31:21 64° NNW 05:41:28 10° NE visible
18 Aug 9.4 03:02:43 47° SSE 03:04:32 51° SE 03:14:11 10° ENE visible
18 Aug 9.4 05:01:01 15° WSW 05:09:36 66° NNW 05:19:44 10° NE visible
19 Aug 9.4 02:42:14 48° SE 02:42:51 49° SE 02:52:25 10° ENE visible
19 Aug 9.3 04:40:31 21° WSW 04:47:50 68° NNW 04:58:00 10° NE visible
